sat.trackr.live / text

‹ back to catalog

STARLINK-35472

NORAD 65913 · 2025-225D

PAYLOAD ACTIVE UNKNOWN

§ Identity

Operator
Country
US
Launch date
2025-10-08
Launch site
AFWTR
Launch vehicle
Mass (kg)
RCS (m²)

Purposes: comms

External: N2YO · Heavens-Above · Gunter

§ Orbital elements

Epoch: 2026-05-25T02:07:47.555904Z

Period
94.10 min
Inclination
53.1574°
Eccentricity
0.0001008
Mean motion
15.30226959 rev/d
Perigee alt
474.4 km
Apogee alt
475.8 km
Semi-major
6,853.3 km
B*
5.0789e-4
RAAN
170.9201°
Arg perigee
107.0239°
Mean anomaly
253.0872°
Rev number
3,610

§ Raw data

STARLINK-354721 65913U 25225D   26145.08874486  .00014726  00000+0  50789-3 0  99942 65913  53.1574 170.9201 0001008 107.0239 253.0872 15.30226959 36101

JSON: /api/v1/satellites/65913 · /tle

For live sub-satellite position, see the globe view (requires WebGL).

§ Visibility from observer

Set your observer location to see the next 7 days of passes ≥ 10°. The values pass through the URL so the page stays shareable.

No JS? Fill the form by hand. The geolocation button needs JavaScript.